Time,TemperatureF,DewpointF,PressureIn,WindDirection,WindDirectionDegrees,WindSpeedMPH,WindSpeedGustMPH,Humidity,HourlyPrecipIn,Conditions,Clouds,dailyrainin,SoftwareType,DateUTC
2015-09-02 00:03:00,56.0,36.0,-100.00,West,264,12.0,14.0,47,-99.99,,,-99.99,,2015-09-02 06:03:00,
2015-09-02 00:13:00,56.0,36.0,-100.00,West,261,14.0,17.0,47,-99.99,,,-99.99,,2015-09-02 06:13:00,
2015-09-02 00:23:00,55.0,36.0,-100.00,WSW,256,15.0,20.0,48,-99.99,,,-99.99,,2015-09-02 06:23:00,
2015-09-02 00:33:00,55.0,36.0,-100.00,West,260,13.0,17.0,48,-99.99,,,-99.99,,2015-09-02 06:33:00,
2015-09-02 00:43:00,55.0,36.0,-100.00,WSW,254,14.0,17.0,48,-99.99,,,-99.99,,2015-09-02 06:43:00,
2015-09-02 00:53:00,55.0,36.0,-100.00,WSW,256,15.0,18.0,48,-99.99,,,-99.99,,2015-09-02 06:53:00,
2015-09-02 01:03:00,55.0,36.0,-100.00,WSW,253,14.0,17.0,48,-99.99,,,-99.99,,2015-09-02 07:03:00,
2015-09-02 01:13:00,55.0,36.0,-100.00,WSW,253,14.0,17.0,48,-99.99,,,-99.99,,2015-09-02 07:13:00,
2015-09-02 01:23:00,55.0,36.0,-100.00,WSW,256,13.0,17.0,48,-99.99,,,-99.99,,2015-09-02 07:23:00,
2015-09-02 01:33:00,56.0,36.0,-100.00,WSW,257,15.0,18.0,47,-99.99,,,-99.99,,2015-09-02 07:33:00,
2015-09-02 01:43:00,55.0,36.0,-100.00,WSW,258,15.0,19.0,48,-99.99,,,-99.99,,2015-09-02 07:43:00,
2015-09-02 01:53:00,55.0,36.0,-100.00,WSW,254,15.0,18.0,50,-99.99,,,-99.99,,2015-09-02 07:53:00,
2015-09-02 02:03:00,55.0,36.0,-100.00,West,260,13.0,17.0,50,-99.99,,,-99.99,,2015-09-02 08:03:00,
2015-09-02 02:12:00,55.0,36.0,-100.00,WSW,253,14.0,18.0,49,-99.99,,,-99.99,,2015-09-02 08:12:00,
2015-09-02 02:23:00,56.0,36.0,-100.00,WSW,247,13.0,17.0,48,-99.99,,,-99.99,,2015-09-02 08:23:00,
2015-09-02 02:33:00,55.0,36.0,-100.00,WSW,250,12.0,16.0,49,-99.99,,,-99.99,,2015-09-02 08:33:00,
2015-09-02 02:43:00,56.0,36.0,-100.00,WSW,258,14.0,19.0,46,-99.99,,,-99.99,,2015-09-02 08:43:00,
2015-09-02 02:53:00,56.0,36.0,-100.00,WSW,258,14.0,18.0,47,-99.99,,,-99.99,,2015-09-02 08:53:00,
2015-09-02 03:03:00,56.0,36.0,-100.00,West,263,16.0,19.0,48,-99.99,,,-99.99,,2015-09-02 09:03:00,
2015-09-02 03:12:00,56.0,36.0,-100.00,West,260,15.0,19.0,48,-99.99,,,-99.99,,2015-09-02 09:12:00,
2015-09-02 03:23:00,56.0,37.0,-100.00,West,265,14.0,18.0,48,-99.99,,,-99.99,,2015-09-02 09:23:00,
2015-09-02 03:33:00,55.0,37.0,-100.00,West,274,14.0,17.0,50,-99.99,,,-99.99,,2015-09-02 09:33:00,
2015-09-02 03:44:00,54.0,37.0,-100.00,West,280,12.0,16.0,52,-99.99,,,-99.99,,2015-09-02 09:44:00,
2015-09-02 03:53:00,54.0,37.0,-100.00,West,280,13.0,18.0,52,-99.99,,,-99.99,,2015-09-02 09:53:00,
2015-09-02 04:03:00,54.0,37.0,-100.00,West,274,14.0,20.0,52,-99.99,,,-99.99,,2015-09-02 10:03:00,
2015-09-02 04:13:00,54.0,37.0,-100.00,West,274,15.0,21.0,52,-99.99,,,-99.99,,2015-09-02 10:13:00,
2015-09-02 04:23:00,54.0,37.0,-100.00,West,272,16.0,19.0,53,-99.99,,,-99.99,,2015-09-02 10:23:00,
2015-09-02 04:33:00,54.0,37.0,-100.00,West,275,14.0,19.0,53,-99.99,,,-99.99,,2015-09-02 10:33:00,
2015-09-02 04:44:00,54.0,38.0,-100.00,West,277,15.0,19.0,54,-99.99,,,-99.99,,2015-09-02 10:44:00,
2015-09-02 04:53:00,53.0,38.0,-100.00,West,280,12.0,20.0,56,-99.99,,,-99.99,,2015-09-02 10:53:00,
2015-09-02 05:03:00,54.0,37.0,-100.00,West,275,14.0,19.0,53,-99.99,,,-99.99,,2015-09-02 11:03:00,
2015-09-02 05:13:00,54.0,38.0,-100.00,West,278,14.0,19.0,54,-99.99,,,-99.99,,2015-09-02 11:13:00,
2015-09-02 05:23:00,53.0,38.0,-100.00,West,280,14.0,18.0,55,-99.99,,,-99.99,,2015-09-02 11:23:00,
2015-09-02 05:34:00,53.0,38.0,-100.00,West,280,13.0,20.0,55,-99.99,,,-99.99,,2015-09-02 11:34:00,
2015-09-02 05:43:00,52.0,38.0,-100.00,WNW,284,12.0,16.0,58,-99.99,,,-99.99,,2015-09-02 11:43:00,
2015-09-02 05:53:00,52.0,38.0,-100.00,WNW,284,11.0,14.0,57,-99.99,,,-99.99,,2015-09-02 11:53:00,
2015-09-02 06:03:00,52.0,38.0,-100.00,WNW,285,11.0,14.0,58,-99.99,,,-99.99,,2015-09-02 12:03:00,
2015-09-02 06:13:00,53.0,38.0,-100.00,West,281,13.0,19.0,55,-99.99,,,-99.99,,2015-09-02 12:13:00,
2015-09-02 06:23:00,54.0,38.0,-100.00,West,277,14.0,20.0,55,-99.99,,,-99.99,,2015-09-02 12:23:00,
2015-09-02 06:34:00,53.0,38.0,-100.00,West,275,16.0,21.0,55,-99.99,,,-99.99,,2015-09-02 12:34:00,
2015-09-02 06:43:00,53.0,38.0,-100.00,West,277,14.0,20.0,56,-99.99,,,-99.99,,2015-09-02 12:43:00,
2015-09-02 06:53:00,53.0,38.0,-100.00,West,275,14.0,17.0,58,-99.99,,,-99.99,,2015-09-02 12:53:00,
2015-09-02 07:03:00,52.0,38.0,-100.00,WNW,284,12.0,15.0,59,-99.99,,,-99.99,,2015-09-02 13:03:00,
2015-09-02 07:13:00,53.0,38.0,-100.00,WNW,285,12.0,16.0,58,-99.99,,,-99.99,,2015-09-02 13:13:00,
2015-09-02 07:23:00,53.0,38.0,-100.00,West,281,11.0,15.0,57,-99.99,,,-99.99,,2015-09-02 13:23:00,
2015-09-02 07:33:00,54.0,38.0,-100.00,West,277,11.0,14.0,55,-99.99,,,-99.99,,2015-09-02 13:33:00,
2015-09-02 07:43:00,55.0,38.0,-100.00,West,275,11.0,14.0,54,-99.99,,,-99.99,,2015-09-02 13:43:00,
2015-09-02 07:53:00,56.0,38.0,-100.00,WNW,287,7.0,13.0,52,-99.99,,,-99.99,,2015-09-02 13:53:00,
2015-09-02 08:03:00,55.0,38.0,-100.00,WNW,288,9.0,17.0,53,-99.99,,,-99.99,,2015-09-02 14:03:00,
2015-09-02 08:12:00,56.0,39.0,-100.00,West,274,16.0,22.0,53,-99.99,,,-99.99,,2015-09-02 14:12:00,
2015-09-02 08:23:00,56.0,39.0,-100.00,West,270,18.0,22.0,52,-99.99,,,-99.99,,2015-09-02 14:23:00,
2015-09-02 08:33:00,57.0,39.0,-100.00,West,263,17.0,21.0,49,-99.99,,,-99.99,,2015-09-02 14:33:00,
2015-09-02 08:43:00,58.0,39.0,-100.00,West,263,15.0,19.0,49,-99.99,,,-99.99,,2015-09-02 14:43:00,
2015-09-02 08:53:00,58.0,39.0,-100.00,West,263,15.0,19.0,48,-99.99,,,-99.99,,2015-09-02 14:53:00,
2015-09-02 09:03:00,59.0,39.0,-100.00,West,264,14.0,24.0,47,-99.99,,,-99.99,,2015-09-02 15:03:00,
2015-09-02 09:12:00,60.0,39.0,-100.00,West,263,11.0,15.0,46,-99.99,,,-99.99,,2015-09-02 15:12:00,
2015-09-02 09:23:00,60.0,39.0,-100.00,West,268,13.0,19.0,46,-99.99,,,-99.99,,2015-09-02 15:23:00,
2015-09-02 09:33:00,60.0,39.0,-100.00,West,270,12.0,17.0,45,-99.99,,,-99.99,,2015-09-02 15:33:00,
2015-09-02 09:43:00,61.0,39.0,-100.00,WSW,256,11.0,17.0,45,-99.99,,,-99.99,,2015-09-02 15:43:00,
2015-09-02 09:53:00,61.0,39.0,-100.00,WSW,250,12.0,17.0,45,-99.99,,,-99.99,,2015-09-02 15:53:00,
2015-09-02 10:03:00,62.0,39.0,-100.00,WSW,246,12.0,17.0,42,-99.99,,,-99.99,,2015-09-02 16:03:00,
2015-09-02 10:12:00,63.0,38.0,-100.00,WSW,250,12.0,17.0,40,-99.99,,,-99.99,,2015-09-02 16:12:00,
2015-09-02 10:25:00,64.0,38.0,-100.00,WSW,258,12.0,-999.0,37,-99.99,,,-99.99,,2015-09-02 16:25:00,
2015-09-02 10:33:00,64.0,38.0,-100.00,West,261,12.0,19.0,38,-99.99,,,-99.99,,2015-09-02 16:33:00,
2015-09-02 10:43:00,64.0,38.0,-100.00,WSW,250,14.0,20.0,38,-99.99,,,-99.99,,2015-09-02 16:43:00,
2015-09-02 10:53:00,65.0,38.0,-100.00,WSW,257,13.0,18.0,36,-99.99,,,-99.99,,2015-09-02 16:53:00,
2015-09-02 11:03:00,65.0,37.0,-100.00,WSW,257,14.0,21.0,34,-99.99,,,-99.99,,2015-09-02 17:03:00,
2015-09-02 11:13:00,67.0,37.0,-100.00,WSW,248,12.0,21.0,33,-99.99,,,-99.99,,2015-09-02 17:13:00,
2015-09-02 11:23:00,67.0,37.0,-100.00,WSW,258,12.0,21.0,33,-99.99,,,-99.99,,2015-09-02 17:23:00,